User: anonymous   Login
Location: Santa Barbara
(34.4500°N, 119.7700°W)
Time: 19:40:50
(UTC-08:00)
Language:

Cosmos 1892 Rocket - Orbit

View from above orbital plane
View from above orbital plane
View from above satellite
View from above satellite

Ground track
Ground track

The orbit data is extracted from the following two-line orbital elements,

1 18422U 87088B   16042.77694821  .00000231  00000-0  25615-4 0  9994
2 18422  82.5110 277.3105 0018148 256.8676 147.5496 14.82831210528992
Epoch (UTC): 11 February 2016 18:38:48
Eccentricity: 0.0018148
inclination: 82.5110°
perigee height: 608 km
apogee height: 633 km
right ascension of ascending node: 277.3105°
argument of perigee: 256.8676°
revolutions per day: 14.82831210
mean anomaly at epoch: 147.5496°
orbit number at epoch: 52899

The dashed part of the orbit path shows where the satellite is in the earth's shadow,  

DLR